Location: Moscow
(55.7500°N, 37.5830°E)
Time: 02:46:32
(UTC+03:00)

Kosmos-337 - Pass Details

Date: 04 July 2022
Orbit: 1467 x 1552 km, 74.0° (Epoch: 13 August)

Event Time Altitude Azimuth Distance (km) Brightness Sun altitude
Rises 22:41:32 0° 319° (NW) 4,733 ? -7.9°
Reaches altitude 10° 22:44:54 10° 328° (NNW) 3,751 ? -8.1°
Maximum altitude 22:53:15 36° 33° (NNE) 2,274 ? -8.5°
Drops below altitude 10° 23:01:30 10° 98° (E) 3,721 ? -9.0°
Sets 23:04:48 0° 107° (ESE) 4,692 ? -9.2°
